DW7898 Weather Reports


Display with metric or nautical units.
time (UTC)temp
F
wind
direction
speed
MPH
gust
MPH
rain 1hr
in
rain 24hr
in
rain mn
in
humidity
%
barometer
mb
20260506072338 58 0 3.0 5.0 0.00 0.00 0.00 68 1013.2
20260506071342 58 50 1.0 3.0 0.00 0.00 0.00 71 1013.1
20260506070347 57 53 0.0 3.0 0.00 0.00 0.00 74 1013.1
20260506062344 53 217 0.0 3.0 0.00 0.00 0.00 82 1013.0
20260506061348 53 206 0.0 2.0 0.00 0.00 0.00 83 1013.0
20260506060353 53 193 0.0 1.0 0.00 0.00 0.00 83 1013.0
20260506051346 51 193 0.0 1.0 0.00 0.00 0.00 84 1012.7
20260506050351 51 194 0.0 1.0 0.00 0.00 0.00 84 1012.7
20260506044335 52 191 0.0 0.0 0.00 0.00 0.00 84 1012.5
20260506043337 52 191 0.0 0.0 0.00 0.00 0.00 84 1012.4
20260506042356 52 191 0.0 0.0 0.00 0.00 0.00 84 1012.4
20260506041356 52 192 0.0 0.0 0.00 0.00 0.00 83 1012.3
20260506040343 52 192 0.0 0.0 0.00 0.00 0.00 83 1012.3
20260506035340 52 192 0.0 0.0 0.00 0.00 0.00 83 1012.2
20260506034340 52 192 0.0 1.0 0.00 0.00 0.00 83 1012.2
20260506033347 52 192 0.0 0.0 0.00 0.00 0.00 83 1012.1
20260506032341 52 192 0.0 1.0 0.00 0.00 0.00 82 1012.1
20260506031348 52 192 0.0 0.0 0.00 0.00 0.00 82 1012.1
20260506030354 52 192 0.0 3.0 0.00 0.00 0.00 82 1012.1
20260506025355 52 262 0.0 2.0 0.00 0.00 0.00 81 1012.1
20260506024340 52 265 0.0 1.0 0.00 0.00 0.00 81 1012.1
20260506023349 53 265 0.0 1.0 0.00 0.00 0.00 81 1012.1
20260506022351 53 264 0.0 4.0 0.00 0.00 0.00 80 1012.1
20260506021355 53 48 0.0 2.0 0.00 0.00 0.00 80 1011.9
20260506020355 54 48 2.0 3.0 0.00 0.00 0.00 80 1011.8
20260506015353 54 48 0.0 3.0 0.00 0.00 0.00 80 1011.8
20260506014338 53 48 0.0 0.0 0.00 0.00 0.00 79 1011.9
20260506013358 53 49 0.0 3.0 0.00 0.00 0.00 79 1011.8
20260506012356 54 49 2.0 3.0 0.00 0.00 0.00 79 1011.9
20260506011358 55 42 0.0 3.0 0.00 0.00 0.00 78 1011.9
20260506010335 55 39 0.0 2.0 0.00 0.00 0.00 78 1011.8
20260506005356 55 39 0.0 2.0 0.00 0.00 0.00 77 1011.9
20260506004358 55 39 0.0 2.0 0.00 0.01 0.00 77 1012.0
20260506003339 55 40 1.0 4.0 0.00 0.01 0.00 77 1012.0
20260506002339 56 21 0.0 0.0 0.00 0.01 0.00 77 1012.0
20260506001344 56 20 0.0 3.0 0.00 0.01 0.00 76 1012.0
20260506000344 56 20 2.0 4.0 0.00 0.01 0.00 76 1012.0
20260505235353 56 14 1.0 3.0 0.00 0.01 0.00 75 1012.1
20260505234351 56 14 2.0 4.0 0.00 0.01 0.00 75 1012.2
20260505233338 57 18 0.0 4.0 0.00 0.01 0.00 74 1012.2
20260505232355 57 17 2.0 6.0 0.00 0.01 0.00 74 1012.1
20260505231357 57 56 3.0 6.0 0.00 0.01 0.00 74 1011.8
20260505230338 57 20 3.0 6.0 0.00 0.01 0.00 74 1012.0
20260505225337 57 5 3.0 4.0 0.00 0.01 0.00 75 1012.1
20260505224357 57 54 0.0 4.0 0.00 0.01 0.00 75 1012.2
20260505223356 57 56 1.0 3.0 0.00 0.01 0.00 75 1012.1
20260505222357 57 58 0.0 2.0 0.00 0.01 0.00 75 1012.4
20260505221338 58 59 0.0 4.0 0.00 0.01 0.00 75 1012.5
20260505220343 58 79 3.0 5.0 0.00 0.01 0.00 76 1012.6
20260505215343 58 329 2.0 4.0 0.00 0.01 0.00 75 1012.8
20260505214348 58 319 2.0 4.0 0.00 0.01 0.00 74 1012.8
20260505212357 58 294 1.0 4.0 0.00 0.01 0.00 74 1012.8
20260505211338 58 199 0.0 0.0 0.00 0.01 0.00 74 1012.5
20260505210341 58 199 0.0 0.0 0.00 0.01 0.00 74 1012.3
20260505205357 58 199 1.0 3.0 0.00 0.01 0.00 75 1012.3
20260505204336 58 262 0.0 1.0 0.00 0.04 0.00 75 1012.1
20260505203343 58 262 0.0 4.0 0.00 0.04 0.00 75 1012.1
20260505202340 58 264 4.0 5.0 0.00 0.04 0.00 74 1012.1
20260505201346 58 254 4.0 5.0 0.00 0.04 0.00 73 1012.0
20260505200340 58 78 0.0 0.0 0.00 0.04 0.00 73 1011.5
20260505195342 58 78 0.0 0.0 0.00 0.04 0.00 74 1011.4
20260505194348 58 78 0.0 4.0 0.00 0.04 0.00 75 1011.4
20260505193337 58 73 0.0 5.0 0.00 0.04 0.00 76 1011.4
20260505192356 58 34 0.0 4.0 0.00 0.04 0.00 76 1011.3
20260505191358 58 66 1.0 6.0 0.00 0.04 0.00 75 1011.4
20260505190342 59 15 4.0 8.0 0.00 0.04 0.00 74 1011.4
20260505185344 59 344 4.0 7.0 0.00 0.04 0.00 72 1011.3
20260505184350 59 12 5.0 7.0 0.00 0.04 0.00 70 1011.2
20260505183336 59 356 4.0 8.0 0.00 0.04 0.00 70 1010.9
20260505182357 59 353 5.0 9.0 0.00 0.04 0.00 67 1011.1
20260505181338 60 336 5.0 6.0 0.00 0.04 0.00 61 1011.3
20260505180344 60 74 3.0 7.0 0.00 0.04 0.00 63 1011.0
20260505175357 60 59 5.0 9.0 0.00 0.04 0.00 61 1011.2
20260505174337 60 355 3.0 5.0 0.00 0.04 0.00 59 1011.4
20260505173342 60 342 1.0 4.0 0.00 0.04 0.00 58 1011.3
20260505172340 60 341 4.0 6.0 0.00 0.04 0.00 58 1011.6
20260505171346 61 339 3.0 11.0 0.00 0.04 0.00 56 1011.7
20260505170336 62 303 4.0 6.0 0.00 0.04 0.00 53 1011.8
20260505165357 62 10 4.0 6.0 0.00 0.04 0.00 54 1011.7
20260505164357 62 0 3.0 7.0 0.00 0.04 0.00 54 1011.5
20260505163336 62 348 4.0 17.0 0.00 0.04 0.00 54 1011.6
20260505162335 65 319 8.0 13.0 0.00 0.04 0.00 62 1011.7
20260505161337 65 219 1.0 8.0 0.00 0.04 0.00 63 1011.4
20260505160340 65 262 4.0 12.0 0.00 0.04 0.00 62 1011.0
20260505153338 65 136 5.0 15.0 0.00 0.05 0.00 57 1010.7
20260505152338 65 114 8.0 15.0 0.00 0.05 0.00 56 1010.8
20260505151343 66 127 8.0 15.0 0.00 0.05 0.00 54 1010.7
20260505150349 66 143 7.0 17.0 0.00 0.05 0.00 53 1010.5
20260505140356 65 121 5.0 15.0 0.00 0.05 0.00 63 1011.0
20260505124355 69 193 3.0 14.0 0.00 0.05 0.00 51 1011.4
20260505123341 68 113 3.0 12.0 0.00 0.05 0.00 50 1011.4
20260505122356 69 156 6.0 13.0 0.00 0.05 0.00 49 1011.7
20260505121343 69 54 0.0 4.0 0.00 0.05 0.00 54 1011.7
20260505120341 69 60 1.0 4.0 0.00 0.05 0.00 55 1011.9
20260505115357 69 351 2.0 6.0 0.00 0.05 0.00 56 1012.0
20260505114340 68 57 1.0 5.0 0.00 0.06 0.00 56 1011.9
20260505113349 67 146 2.0 3.0 0.00 0.06 0.00 56 1012.1
20260505112350 66 152 1.0 6.0 0.00 0.06 0.00 59 1012.3
20260505111338 65 106 3.0 5.0 0.00 0.06 0.00 61 1012.5
20260505110336 64 122 0.0 5.0 0.00 0.06 0.00 63 1012.5
20260505101335 64 244 2.0 8.0 0.00 0.06 0.00 61 1012.7
20260505100339 64 213 3.0 7.0 0.00 0.06 0.00 61 1012.7
20260505095338 64 28 0.0 3.0 0.00 0.06 0.00 64 1012.6
20260505094356 63 56 0.0 3.0 0.00 0.06 0.00 69 1012.6
20260505093342 62 56 2.0 7.0 0.00 0.06 0.00 71 1012.5
20260505092345 61 120 3.0 6.0 0.00 0.06 0.00 73 1012.2
20260505091351 61 15 4.0 6.0 0.00 0.06 0.00 74 1012.1
20260505090337 61 255 3.0 6.0 0.00 0.06 0.00 73 1013.0
20260505085338 61 254 3.0 6.0 0.00 0.06 0.00 71 1013.0
20260505084337 61 269 3.0 6.0 0.00 0.06 0.00 69 1012.9
20260505083338 61 231 3.0 5.0 0.00 0.06 0.00 68 1012.8
20260505082338 61 79 0.0 0.0 0.00 0.06 0.00 70 1012.5
20260505081336 61 80 0.0 4.0 0.00 0.06 0.00 74 1012.5
20260505080355 60 90 2.0 6.0 0.00 0.06 0.00 76 1012.5
20260505075353 59 233 0.0 4.0 0.00 0.06 0.00 82 1012.5
20260505074336 57 218 0.0 3.0 0.00 0.06 0.00 84 1012.6
20260505073337 57 215 2.0 4.0 0.00 0.06 0.00 85 1012.9